Theta_e
311 313 319 318 315 313 316 317 318 310 310 310 309 310 310 309 309 315 322 325 326 326 323 326 327 329 330 330 330 330 331 331 332 332 332 332 331 329 328 327 327 327 326 325
311 312 312 315 315 315 311 311 314 311 309 308 309 309 307 306 308 311 315 320 323 322 323 322 323 328 329 330 330 330 330 331 332 332 332 331 330 329 328 327 327 327 326 325
313 311 311 312 311 313 314 312 310 312 309 308 309 309 308 307 308 309 311 314 317 319 320 319 321 323 325 328 329 329 330 331 332 333 333 333 332 329 328 326 325 325 325 324
311 310 310 310 310 310 313 310 309 310 314 315 308 312 308 306 307 305 310 311 313 314 315 315 317 321 324 326 328 328 329 329 331 331 333 333 331 329 328 326 325 325 324 324
310 310 309 311 311 311 312 308 309 309 309 307 308 307 308 305 306 306 307 311 313 314 313 313 313 314 319 322 323 326 328 328 329 330 332 332 331 330 328 326 324 325 325 324
308 308 308 309 310 310 309 311 308 306 307 310 310 308 308 305 306 306 309 312 313 314 314 313 312 312 316 319 322 325 326 328 328 329 330 331 330 329 328 327 325 323 323 323
307 306 306 310 310 310 310 313 314 311 309 312 302 305 310 307 303 305 308 313 315 314 313 312 313 312 313 315 319 324 326 327 328 329 329 329 330 329 328 327 325 323 323 322
310 310 305 305 309 310 311 313 313 313 311 310 304 307 307 305 307 308 308 309 310 311 313 313 313 312 313 313 314 318 323 325 326 327 327 328 330 330 328 327 326 324 323 322
309 309 306 305 306 308 306 312 310 307 299 306 306 305 304 304 305 305 306 308 310 311 311 311 312 312 312 312 312 312 312 312 311 311 312 320 327 330 328 326 324 324 322 320
306 308 306 306 306 307 307 307 309 307 310 308 306 305 307 307 306 307 305 308 312 311 310 309 310 311 311 311 311 311 312 311 311 311 311 310 318 329 327 327 324 322 320 318
304 306 307 306 306 305 305 307 307 308 308 310 307 308 302 306 306 307 307 306 307 309 310 309 309 310 311 311 311 311 311 311 311 311 310 310 314 328 329 326 323 321 318 317
304 305 306 306 306 305 305 306 308 310 309 304 307 310 303 303 303 304 306 307 308 309 311 310 309 310 310 310 311 311 310 311 312 310 310 312 323 323 324 324 323 320 316 317
305 306 302 307 307 306 306 305 306 306 306 309 309 311 303 304 305 306 306 308 308 309 309 309 310 310 311 311 311 310 311 313 313 313 315 320 321 323 323 323 322 318 316 310
308 307 307 308 308 306 308 306 305 306 307 308 307 309 308 306 305 306 308 309 308 309 310 310 311 311 311 310 310 310 311 313 313 317 319 320 321 321 322 323 319 315 309 304
308 310 307 306 306 307 308 308 306 307 309 309 310 308 307 306 306 306 308 309 309 309 310 311 311 311 311 310 310 310 311 313 314 317 318 318 319 320 322 319 313 308 303 299
305 304 306 305 306 306 307 308 307 308 308 308 309 308 307 307 307 307 308 308 309 310 310 311 311 311 311 310 310 310 310 312 314 316 318 319 319 320 317 310 307 302 299 296
306 303 302 304 305 306 306 307 307 307 307 309 308 309 304 304 303 306 309 308 309 310 310 310 311 311 311 311 310 310 310 311 314 315 316 317 317 312 308 305 301 298 296 296
306 309 305 307 305 308 307 305 305 306 307 307 308 306 305 306 308 308 309 309 310 310 310 310 310 310 311 311 311 310 309 310 311 313 313 312 309 306 304 300 298 296 295 296
305 307 306 309 307 307 306 304 303 304 307 304 304 304 305 307 307 307 309 309 310 310 311 311 311 310 310 310 311 310 309 309 308 309 308 307 306 303 300 298 296 295 296 296
302 307 309 297 310 309 308 304 306 307 309 307 305 303 303 304 305 308 309 309 310 310 310 310 309 309 309 310 309 310 310 309 308 308 307 306 304 301 299 297 295 296 296 295
302 300 308 297 307 302 300 302 308 310 309 304 306 308 305 303 307 308 309 308 308 309 309 309 309 309 308 309 309 309 309 309 309 307 306 305 302 299 297 295 295 296 295 294
306 307 304 294 297 308 300 302 309 307 303 305 306 305 306 307 307 307 308 308 308 308 308 308 308 308 308 308 308 309 309 309 308 307 306 304 301 298 296 295 295 295 294 293
307 306 307 307 306 302 302 304 305 305 304 304 305 304 305 306 306 306 306 306 307 308 308 307 307 308 307 307 308 308 308 307 307 306 305 303 299 297 295 294 295 294 293 291
303 303 304 306 303 302 302 303 303 303 302 302 302 303 302 302 302 303 303 304 303 304 306 308 308 308 307 307 307 307 306 306 305 304 304 302 298 296 294 294 294 294 293 290
300 302 301 301 302 301 301 302 301 301 302 303 302 302 301 302 301 301 301 301 301 302 303 305 307 307 306 305 306 305 305 305 303 302 302 300 297 295 294 294 294 294 291 289
301 304 304 301 302 302 302 300 302 302 302 302 301 300 300 300 300 300 300 300 300 301 301 303 305 306 306 305 305 304 304 303 302 301 301 299 296 294 293 294 293 292 289 293
Wind_Speed
9 5 8 10 7 2 9 6 9 2 4 2 7 9 11 6 13 16 25 30 31 32 29 29 31 32 32 31 30 28 27 25 24 24 23 23 23 21 19 20 18 16 15 13
4 10 7 5 4 6 2 3 10 4 3 3 2 12 8 6 11 27 31 31 32 31 31 27 30 34 36 34 33 31 29 28 28 27 25 24 21 22 20 20 21 20 19 16
11 4 14 12 7 11 10 3 4 1 3 1 3 7 6 6 14 18 28 28 30 33 33 30 31 33 34 36 35 34 33 32 32 32 30 28 24 23 23 19 22 20 18 15
5 7 16 8 11 9 8 6 1 2 3 6 1 7 7 7 9 9 29 29 33 33 33 33 33 35 35 36 35 34 34 34 34 34 35 32 29 26 25 20 17 17 20 20
8 12 6 16 9 7 4 5 3 4 4 1 5 3 7 2 7 8 20 34 36 36 35 35 34 35 35 34 36 36 36 35 34 34 35 34 32 26 22 22 18 22 22 22
8 7 9 7 5 8 8 6 7 2 4 6 12 7 6 6 7 6 21 34 38 38 38 34 29 32 35 34 34 36 37 37 36 35 35 36 33 27 28 25 21 23 22 22
3 3 3 14 7 5 7 11 2 2 3 8 5 3 12 5 8 8 14 35 40 38 38 36 34 37 39 38 35 35 36 36 37 37 37 37 36 32 32 30 25 21 22 23
10 7 9 4 7 6 13 11 6 7 3 3 0 8 6 10 13 20 20 24 24 29 41 46 43 40 40 37 36 36 36 35 36 37 37 37 38 36 34 30 26 24 23 23
7 5 1 3 5 10 6 15 6 4 4 3 6 6 8 6 9 12 23 24 30 30 32 38 45 41 39 38 37 35 35 34 36 37 38 39 38 38 36 32 27 24 22 22
6 4 3 4 5 2 11 12 7 2 5 5 4 5 5 3 10 11 12 28 41 33 29 30 36 36 36 35 33 33 34 34 34 34 36 38 37 37 35 32 26 24 23 23
6 5 1 5 8 9 3 10 3 5 4 5 0 7 8 12 12 11 12 13 22 25 22 25 31 32 32 32 31 31 32 31 31 30 30 32 33 35 34 34 26 25 24 24
8 6 4 6 2 0 4 8 12 7 10 1 2 15 5 9 6 10 20 22 19 19 19 19 28 30 30 29 28 28 28 27 26 24 25 27 30 34 35 33 29 27 26 25
8 3 4 4 2 0 6 4 7 4 4 10 4 15 3 4 5 8 13 14 14 15 15 19 25 28 28 28 27 27 25 24 23 21 22 28 32 34 33 33 29 28 27 26
17 4 7 10 5 8 5 5 3 5 3 6 11 3 5 6 8 4 6 10 9 11 15 20 25 27 26 26 26 25 24 24 23 23 26 30 33 34 34 31 30 30 29 27
7 8 5 3 5 6 7 13 14 12 16 9 30 16 12 11 5 6 10 8 8 12 17 22 25 26 26 27 27 26 25 25 26 28 30 31 32 33 33 32 32 31 29 25
2 3 5 3 2 6 6 11 14 20 21 21 18 22 2 9 16 15 22 12 14 17 20 22 25 27 29 29 29 29 28 28 29 30 32 33 34 35 35 34 33 31 28 25
8 6 3 7 2 3 3 14 16 13 16 18 17 19 6 3 8 17 20 22 25 26 24 22 25 28 30 31 32 32 30 30 31 32 34 36 37 37 36 35 33 30 27 23
5 12 3 3 3 5 7 5 13 17 14 21 20 2 7 13 24 21 20 24 29 29 27 26 27 29 31 33 34 32 33 33 34 35 36 38 38 37 36 34 32 29 26 24
6 4 2 5 4 6 11 8 7 7 14 14 13 8 15 18 13 26 28 27 27 30 29 29 29 30 31 33 35 36 37 38 38 38 39 40 40 39 38 35 33 30 27 24
2 9 10 4 7 11 20 10 12 6 16 9 13 12 11 12 5 13 23 20 25 30 34 35 34 33 33 32 33 38 41 43 45 44 43 42 42 41 39 35 33 30 26 23
3 2 13 4 7 10 6 5 22 8 11 3 2 16 19 9 9 5 7 10 12 15 19 25 29 33 34 32 32 36 43 47 46 46 45 45 43 41 38 35 33 30 28 24
8 8 4 3 2 19 8 6 19 8 4 6 8 6 13 21 17 16 18 20 22 23 23 23 24 24 25 30 31 34 40 43 47 47 46 46 45 43 40 38 35 32 28 25
4 5 7 12 9 3 22 3 13 4 5 6 5 5 5 5 4 4 6 8 13 14 14 15 19 21 23 25 28 32 34 39 44 47 48 49 47 44 42 40 36 33 29 25
3 1 3 3 1 1 14 7 10 4 5 8 7 4 3 2 0 3 4 6 9 10 11 11 12 14 16 19 23 27 30 32 37 44 49 49 48 47 44 40 36 32 28 25
2 3 3 2 3 4 3 5 5 7 8 5 4 4 3 3 4 5 6 7 8 10 11 10 10 10 11 14 18 23 25 27 32 39 46 49 49 48 45 41 36 31 26 21
3 3 3 2 2 5 5 6 6 5 5 5 5 6 5 6 6 6 7 8 9 10 12 13 12 11 11 12 14 19 23 26 30 36 42 49 50 48 45 40 35 30 25 20
Wind_Direction
159 178 198 179 176 94 145 169 231 241 202 189 226 247 248 228 222 225 217 216 216 223 228 229 229 227 228 228 227 226 227 226 224 225 226 228 233 234 236 238 239 241 247 253
131 221 188 174 152 235 203 186 231 269 28 156 272 259 256 200 227 225 224 222 223 225 232 231 229 227 229 231 231 230 229 230 234 235 237 240 241 234 234 243 248 248 254 254
163 251 199 180 170 209 223 196 262 202 57 270 300 283 246 235 229 241 237 235 231 230 232 231 227 226 227 230 230 231 232 237 239 241 241 240 241 242 240 246 240 244 248 250
247 247 176 183 195 182 211 179 344 84 70 269 317 268 258 220 231 208 233 232 235 235 238 236 234 230 227 230 232 233 236 240 241 240 240 242 243 238 243 246 248 242 239 240
211 196 188 192 186 145 146 66 144 202 138 27 239 254 253 155 241 240 237 232 234 236 236 239 238 234 233 233 236 236 237 239 238 236 237 238 240 241 241 248 236 234 237 242
202 209 180 159 136 155 110 50 331 61 105 253 236 199 245 207 195 228 234 236 236 237 239 238 239 232 231 232 233 232 233 235 234 234 235 237 238 236 235 235 239 238 240 243
130 239 163 145 141 132 117 135 218 196 189 242 344 225 245 252 233 220 227 237 237 238 238 235 234 227 227 228 230 230 231 233 234 235 236 236 237 233 239 243 248 245 241 242
169 209 161 194 172 163 179 170 173 199 197 217 351 244 248 222 267 251 256 255 251 244 244 239 237 230 226 227 228 230 231 234 237 239 239 237 236 232 235 240 241 246 244 242
152 237 98 171 152 141 176 211 208 83 80 56 219 289 295 269 260 256 257 254 254 252 251 244 232 228 224 224 225 229 233 237 240 241 240 236 232 227 235 233 237 237 237 229
176 144 192 160 115 203 183 159 173 193 181 218 264 277 233 276 233 233 244 245 252 249 249 245 231 227 222 225 229 233 238 243 245 243 238 234 229 224 228 226 231 232 223 221
150 109 178 130 207 165 159 188 189 154 173 193 187 259 214 216 216 236 257 293 276 263 249 245 225 220 221 227 233 241 244 245 240 236 232 227 222 222 221 222 220 219 215 214
184 119 153 197 258 250 188 187 193 200 211 276 155 246 198 232 264 281 281 280 281 264 248 238 223 224 227 234 239 243 245 241 236 227 223 214 210 217 218 218 228 227 210 210
178 156 87 8 339 122 219 213 187 144 75 212 165 254 244 255 286 270 280 297 274 248 228 215 216 222 228 233 237 236 235 233 229 222 208 201 206 209 214 220 227 215 205 204
155 128 163 194 211 132 188 189 156 149 177 209 243 228 259 261 246 284 312 314 273 241 228 221 221 225 231 235 236 235 230 228 220 210 203 203 203 207 214 227 215 202 199 203
145 190 177 239 207 184 188 186 182 191 218 187 248 242 229 245 259 260 276 274 247 236 231 230 231 234 235 235 235 233 228 224 215 208 205 205 206 209 213 212 200 198 200 201
183 218 123 205 211 204 193 206 196 206 221 235 255 262 76 259 250 243 259 248 235 240 241 243 242 240 240 238 237 232 226 221 217 212 209 207 211 211 204 200 199 199 201 200
172 124 106 233 126 110 343 207 198 211 217 228 236 247 161 218 231 243 262 259 260 265 262 257 255 251 246 242 238 232 227 220 215 212 211 210 207 202 199 200 201 202 202 203
151 187 121 200 69 197 252 204 196 208 221 224 243 139 197 231 255 262 254 261 266 270 271 271 268 261 257 244 239 234 228 221 217 210 207 206 204 203 202 202 203 203 203 207
160 124 116 147 197 280 278 226 160 169 254 222 227 219 235 247 260 264 256 253 258 268 267 270 275 270 265 253 241 234 229 223 220 215 211 209 207 206 205 205 205 205 207 212
36 193 187 129 211 222 254 181 162 108 276 210 191 199 200 174 230 259 269 270 265 269 274 274 273 272 266 263 247 236 232 228 224 220 216 213 211 210 209 208 207 208 210 214
125 89 193 177 220 262 233 158 153 158 264 91 179 225 198 193 219 213 266 283 286 279 274 273 270 270 270 265 256 241 235 232 230 223 219 215 214 213 212 211 209 210 211 215
157 152 175 84 129 250 151 117 173 224 107 138 121 122 190 223 241 264 275 283 286 283 274 269 272 274 274 266 257 248 241 237 231 226 222 218 215 213 211 210 210 209 213 216
193 190 185 188 209 207 174 180 195 172 151 151 152 140 144 178 204 267 299 297 301 310 305 288 274 270 267 265 259 253 250 241 234 227 222 218 215 212 211 210 210 211 213 215
244 223 165 120 82 124 189 166 188 164 142 135 142 146 132 141 345 334 330 334 326 326 323 315 304 293 278 267 261 257 253 249 240 230 223 218 214 211 210 210 212 214 216 215
208 121 151 301 51 104 99 188 166 142 134 129 128 117 91 65 40 19 359 347 341 334 335 334 328 315 298 278 267 259 255 249 240 232 225 217 213 212 211 210 212 214 217 218
191 169 168 201 49 99 72 137 172 167 118 104 107 94 66 50 42 28 14 358 352 345 338 337 335 325 312 291 271 260 253 247 241 232 224 218 213 212 210 209 209 210 209 217